Regional Weather Roundup
Issued by NWS

Home | Current Version | Previous Version | Graphics & Text | Print | Product List | Glossary On
Versions: 1 2 3 4 5 6 7 8 9 10 11 12 13 14 15 16 17 18 19 20 21 22 23 24 25 26 27 28 29 30 31 32 33 34 35 36 37 38 39 40 41 42 43 44 45 46 47 48 49 50
000
ASUS43 KDTX 100201
RWRMI
MICHIGAN HOURLY REGIONAL WEATHER ROUNDUP
NATIONAL WEATHER SERVICE DETROIT/PONTIAC MI
1000 PM EDT WED JUL 09 2014

NOTE: "FAIR" INDICATES FEW OR NO CLOUDS BELOW 12,000 FEET WITH NO
SIGNIFICANT WEATHER AND/OR OBSTRUCTION TO VISIBILITY.

MIZ047>049-052>055-059>063-066>070-074>076-081>083-100300-
SOUTHEAST LOWER MICHIGAN

CITY           SKY/WX    TMP DP  RH WIND       PRES   REMARKS
ADRIAN         CLEAR     66  56  70 NW3       30.01R
ALMA           PTCLDY    63  51  66 NW3       30.01R
ANN ARBOR      PTCLDY    61  54  77 CALM      30.00R
BAD AXE        PTCLDY    59  54  82 CALM      30.00R
CARO           PTCLDY    63  60  90 N3        29.99R
DETROIT CITY   CLEAR     72  53  51 CALM      29.99R
DETROIT        PTCLDY    68  54  60 N3        29.99R
FLINT          CLEAR     66  52  60 CALM      29.99R
GROSSE ILE     MOCLDY    70  57  64 NE3       29.98R
HILLSDALE      CLEAR     63  58  84 CALM      30.02R
HOWELL         CLEAR     63  56  77 CALM      30.00R

CITY           SKY/WX    TMP DP  RH WIND       PRES   REMARKS
JACKSON        CLEAR     63  55  75 W5        30.01R
LAMBERTVILLE   CLEAR     68  55  64 CALM      30.00R
LANSING        CLEAR     64  55  72 NW3       30.00R
LAPEER         FAIR      59  55  88 CALM      30.00R
MASON          CLEAR     64  55  70 CALM      30.00R
MONROE         CLEAR     66  57  72 CALM      29.98R
MT. CLEMENS    CLEAR     66  55  68 CALM      29.98R
PONTIAC        PTCLDY    66  53  63 NW3       29.99R
PORT HOPE        N/A     57  54  89 S3        29.99R
PORT HURON     CLEAR     57  55  94 CALM      30.00R
TRI CITIES     MOCLDY    67  52  58 NW5       30.00R
TROY           CLEAR     67  53  59 CALM      30.00R
SAGINAW HB     MOCLDY    64  55  72 CALM      29.99R
$$
MIZ043>046-050>051-056>058-064>065-071>073-077>080-100300-
SOUTHWEST LOWER MICHIGAN

CITY           SKY/WX    TMP DP  RH WIND       PRES   REMARKS
BATTLE CREEK   CLEAR     65  55  70 NW6       30.02R
BENTON HARBOR  LGT RAIN  61  57  87 CALM      30.02R
BIG RAPIDS     PTCLDY    61  50  67 NW3       30.02R
COLDWATER      CLEAR     65  56  74 NW3       30.01R
FREMONT        FAIR      59  53  81 NW5       30.03R
HOLLAND        CLEAR     64  54  69 NW5       30.04R
GRAND RAPIDS   PTCLDY    67  52  58 NW10      30.02R
IONIA          FAIR      64  53  65 NW5       30.00R
KALAMAZOO      CLEAR     65  54  67 NW8       30.03R
LUDINGTON      CLOUDY    57  54  90 CALM      30.04R
MARSHALL       CLEAR     61  54  76 W3        30.01R
MOUNT PLEASANT CLOUDY    64  52  65 W5        30.00R
MUSKEGON       PTCLDY    63  53  70 NW6       30.03R
SOUTH HAVEN    CLEAR     62  59  90 CALM      30.03R
$$
MIZ016>042-100300-
NORTHERN LOWER MICHIGAN

CITY           SKY/WX    TMP DP  RH WIND       PRES   REMARKS
ALPENA         PTCLDY    57  52  83 N3        30.01R
BEAVER ISLAND  CLEAR     55  49  79 CALM      30.03R
BELLAIRE       PTCLDY    56  52  86 CALM      30.02R
CADILLAC       CLEAR     56  51  85 CALM      30.03R
CHARLEVOIX     CLEAR     56  53  92 W7        30.06R
FRANKFORT      PTCLDY    55  51  86 CALM      30.04R
GAYLORD        CLEAR     56  49  77 NW3       30.03R
GRAYLING       CLOUDY    58  50  75 NW5       30.04R
HARBOR SPRINGS CLEAR     55  53  92 CALM      30.01R
HOUGHTON LAKE  MOCLDY    60  51  72 NW3       30.02R
MANISTEE       PTCLDY    55  50  82 W3        30.04R
OSCODA         PTCLDY    58  55  89 CALM      29.99R
PELLSTON       CLEAR     55  52  89 W5        30.02R
ROGERS CITY    CLOUDY    58  55  87 NW6       30.02R
TRAVERSE CITY  MOCLDY    62  51  67 NW8       30.02R
$$
MIZ007>008-015-100300-
EASTERN UPPER MICHIGAN

CITY           SKY/WX    TMP DP  RH WIND       PRES   REMARKS
KINROSS        PTCLDY    52  46  82 NW8       30.01R
MACKINAC ISLAN CLEAR     56  49  76 NW6       30.01R
NEWBERRY       CLEAR     53  45  74 CALM      30.01R
S. S. MARIE    PTCLDY    50  43  77 W6        30.01R
$$
MIZ004>006-011>014-085-100300-
CENTRAL UPPER MICHIGAN

CITY           SKY/WX    TMP DP  RH WIND       PRES   REMARKS
MANISTIQUE     CLEAR     52  47  84 CALM      30.01S
ESCANABA       CLEAR     55  48  76 CALM      30.02R
MENOMINEE      CLEAR     57  54  88 CALM      30.02R
SAWYER-GWINN   CLEAR     57  48  72 S3        30.02R
$$
MIZ001>003-009>011-084-100300-
WESTERN UPPER MICHIGAN

CITY           SKY/WX    TMP DP  RH WIND       PRES   REMARKS
IRON MOUNTAIN  CLEAR     57  48  72 CALM      30.02R
HOUGHTON       CLEAR     57  44  62 W6        30.00R
COPPER HARBOR    N/A     53  48  83 CALM      30.00R
$$

ABBREVIATIONS USED IN REMARKS
   TC - TEMPERATURE IN CELSIUS
  WCI - WIND CHILL INDEX
   HX - HEAT INDEX
  VSB - VISIBILITY



USA.gov is the U.S. government's official web portal to all federal, state and local government web resources and services.